Regional Weather Roundup
Issued by NWS

Home | Current Version | Previous Version | Graphics & Text | Print | Product List | Glossary On
Versions: 1 2 3 4 5 6 7 8 9 10 11 12 13 14 15 16 17 18 19 20 21 22 23 24 25 26 27 28 29 30 31 32 33 34 35 36 37 38 39 40 41 42 43 44 45 46 47 48 49 50
000
ASUS43 KLOT 021700
RWRIL

ILLINOIS REGIONAL WEATHER ROUNDUP
NATIONAL WEATHER SERVICE CHICAGO/ROMEOVILLE IL
1200 PM CDT SUN AUG 02 2015

NOTE: "FAIR" INDICATES FEW OR NO CLOUDS BELOW 12,000 FEET WITH NO
SIGNIFICANT WEATHER AND/OR OBSTRUCTIONS TO VISIBILITY.

* THESE STATIONS ARE NOT UNDER NWS QUALITY CONTROL. THEY ALSO MAY NOT
  REPORT WEATHER SUCH AS PRECIPITATION OR FOG.

ILZ001-002-007-009-015-016-024-021800-
NORTHWEST ILLINOIS

CITY           SKY/WX    TMP DP  RH WIND       PRES   REMARKS
MOLINE         SUNNY     86  67  52 SW14G21   29.81F HX  89
STERLING*      SUNNY     86  70  58 W13G18    29.78F HX  90
$$

ILZ003-004-008-010-011-017-018-021800-
NORTH CENTRAL ILLINOIS

CITY           SKY/WX    TMP DP  RH WIND       PRES   REMARKS
ROCKFORD       MOSUNNY   87  66  49 SW17G26   29.79F HX  89
$$

ILZ005-006-012>014-019>023-021800-
NORTHEAST ILLINOIS

CITY           SKY/WX    TMP DP  RH WIND       PRES   REMARKS
CHICAGO-OHARE  MOSUNNY   88  63  43 SW20G30   29.79F HX  89
CHICAGO-MIDWAY MOSUNNY   90  62  39 W24G30    29.81F HX  90
AURORA         SUNNY     87  62  43 SW15G26   29.82F HX  87
WAUKEGAN       SUNNY     87  67  51 SW21G31   29.75F HX  90
DUPAGE AIRPORT SUNNY     87  63  44 SW20G30   29.81F HX  88
WHEELING       SUNNY     89  62  40 SW18G29   29.79F HX  89
NORTHERLY ISL    N/A     87  59  38 W13         N/A  HX  86
$$

LMZ740>746-021800-
SOUTHERN LAKE MICHIGAN

STATION/POSITION SKY/WX   TEMP    WIND        PRES    VSBY  WAVE
                          AIR SEA DIR/SP/G                  HT/PER
                          (F)     (DEG/KT/KT) (MB)    (MI)  (FT/S)
HARRISON CRIB              83     240/ 23/ 32   N/A
BURNHAM HARBOR             86     240/ 10/ 19   N/A
CALUMET HARBOR             85     230/ 13/ 22   N/A
BURNS HARBOR               84     210/ 19/ 25 1010.2F
MICHIGAN CITY              81     190/ 18/ 23   N/A
MICHIGAN CITY 6N           78 74  230/ 12/ 16   N/A           2/ 3
ST. JOSEPH                 76 73  240/ 14/ 16   N/A           3/ 4
$$

ILZ025>027-034>036-040-047-049-050-058-095>099-021800-
WEST-CENTRAL ILLINOIS

CITY           SKY/WX    TMP DP  RH WIND       PRES   REMARKS
QUINCY         PTSUNNY   86  71  60 SW10      29.90S HX  91
MACOMB*        PTSUNNY   85  72  63 SW12      29.89F HX  91
$$

ILZ028>032-037-038-041>044-048-051>054-059>061-021800-
CENTRAL ILLINOIS

CITY           SKY/WX    TMP DP  RH WIND       PRES   REMARKS
DECATUR        MOSUNNY   86  69  56 SW14      29.93S HX  90
PEORIA         PTSUNNY   89  70  53 SW14      29.87F HX  94
SPRINGFIELD    PTSUNNY   81  73  76 CALM      29.92F HX  86
TAYLORVILLE    NOT AVBL
$$

ILZ033-039-045-046-055>057-062-063-021800-
EAST-CENTRAL ILLINOIS

CITY           SKY/WX    TMP DP  RH WIND       PRES   REMARKS
CHAMPAIGN      SUNNY     86  73  65 SW13G21   29.92F HX  93
MATTOON        SUNNY     84  68  58 SW10      29.93F HX  87
$$

ILZ079-100>102-021800-
SOUTHWEST ILLINOIS

CITY           SKY/WX    TMP DP  RH WIND       PRES   REMARKS
ALTON          MOSUNNY   88  70  55 SW9       29.94F HX  92
CAHOKIA*       SUNNY     91  70  49 VRB5      29.93F HX  96
$$

ILZ064>066-069>071-074>076-080>082-084>086-088>090-092>094-021800-
SOUTH-CENTRAL ILLINOIS

CITY           SKY/WX    TMP DP  RH WIND       PRES   REMARKS
CARBONDALE     SUNNY     87  72  60 S8        29.97F HX  93
MT. VERNON     SUNNY     90  72  55 SW12      29.97F HX  96
SALEM*         SUNNY     89  69  50 SW10      29.96S HX  93
$$

ILZ067-068-072-073-078-083-087-091-021800-
SOUTHEAST ILLINOIS

CITY           SKY/WX    TMP DP  RH WIND       PRES   REMARKS
LAWRENCEVILLE  SUNNY     87  67  51 SW10      29.97S HX  90
HARRISBURG*    SUNNY     84  68  58 SW9       29.99F HX  87
$$

ABBREVIATIONS USED IN REMARKS
   TC - TEMPERATURE IN CELSIUS
  WCI - WIND CHILL INDEX
   HX - HEAT INDEX
  VSB - VISIBILITY
$$




USA.gov is the U.S. government's official web portal to all federal, state and local government web resources and services.